ラッセル第2彗星

89P/Russell 2 (2024)

English version
Home page
Updated on September 4, 2024

---------------------------------------------------------------------

・ プロフィール

・ 写真集

・ 軌道要素

Epoch 2024 Mar. 31.0 TT = JDT 2460400.5
T 2024 Mar. 26.60793 TT                                 Rudenko
q   2.2218440            (2000.0)            P               Q
n   0.13563274     Peri.  250.40149     +0.35674807     +0.92392799
a   3.7516850      Node    41.34562     -0.75946119     +0.37295098
e   0.4077744      Incl.   12.07206     -0.54401242     +0.08523285
P   7.27
>From 247 observations 1980 Sept. 28-2024 May 14, mean residual 0".7.
     Nongravitational parameters A1 = +0.83, A2 = -0.0344.

・ 星図

・ 光度変化

        m1 = 5.5 + 5 logΔ + 28 log r(t - 80)

---------------------------------------------------------------------

軌道要素はM.P.E.C. 2024-J304に掲載されたものです。
星図はステラナビゲータ Ver.11 (アストロアーツ) で作成したものです。
光度グラフはComet for Windowsで作成したものです。

---------------------------------------------------------------------

Copyright(C) Seiichi Yoshida (comet@aerith.net). All rights reserved.